アトラス彗星

C/2020 H6 ( ATLAS )

English version
Home page
Updated on September 18, 2021

---------------------------------------------------------------------

・ プロフィール

発見日 2020年4月22日
発見光度 18.1等
発見者 James Robinson (Asteroid Terrestrial-Impact Last Alert System (ATLAS) search program)

・ 写真集

・ 軌道要素

Epoch 2021 Sept. 23.0 TT = JDT 2459480.5
T 2021 Oct. 1.07420 TT                                  Rudenko
q   4.7028927            (2000.0)            P               Q
z  -0.0001528      Peri.   20.34776     -0.74636457     +0.37990675
 +/-0.0000013      Node   213.70650     -0.65980885     -0.31488215
e   1.0007188      Incl.   79.96725     +0.08713326     +0.86978163
From 776 observations 2020 Apr. 22-2021 Aug. 23, mean residual 0".7.

・ 星図

・ 光度変化

        m1 = 2.5 + 5 logΔ + 15.0 log r

---------------------------------------------------------------------

軌道要素はM.P.E.C. 2021-R75に掲載されたものです。
星図はステラナビゲータ Ver.10 (アストロアーツ) で作成したものです。
光度グラフはComet for Windowsで作成したものです。

---------------------------------------------------------------------

Copyright(C) Seiichi Yoshida (comet@aerith.net). All rights reserved.